Location: Unspecified
(0.0000°N, 0.0000°E)
Time: 10:41:36
(UTC+00:00)

Cosmos 2333 Rocket - Pass Details

Date: 22 December 2025
Orbit: 838 x 865 km, 70.8° (Epoch: 17 January)

Event Time Altitude Azimuth Distance (km) Brightness Sun altitude
Exits shadow 05:22:53 - 306° (NW) 2,554 4.1 -8.2°
Reaches altitude 10° 05:23:11 10° 304° (NW) 2,468 4.0 -8.1°
Maximum altitude 05:27:28 22° 254° (WSW) 1,754 3.4 -7.1°
Drops below altitude 10° 05:31:46 10° 204° (SSW) 2,461 4.6 -6.1°
Sets 05:34:45 0° 190° (S) 3,394 5.5 -5.5°
